Weather History for Hawthorne, CA

Change the Weather History Date:

Sunday, March 10, 2013

  Actual Average Record
Temperature  
Mean Temperature 55 °F -  
Max Temperature 64 °F 64 °F 84 °F (2008)
Min Temperature 46 °F 51 °F 39 °F (1962)
Degree Days  
Heating Degree Days 10    
Growing Degree Days 5 (Base 50)    
Moisture  
Dew Point 45 °F    
Average Humidity 64    
Maximum Humidity 83    
Minimum Humidity 45    
Precipitation  
Precipitation 0.00 in - - ()
Sea Level Pressure  
Sea Level Pressure 30.21 in    
Wind  
Wind Speed 3 mph (West)    
Max Wind Speed 15 mph    
Max Gust Speed 24 mph    
Visibility 10 miles    
Events      
Averages and records for this station are not official NWS values.
T = Trace of Precipitation, MM = Missing Value Source: NWS Daily Summary

Daily Weather History Graph

Daily Weather History Graph

Search for Another Location

Airport:

Trip Planner

Search our weather history database for the weather conditions in past years. The results will help you decide how hot, cold, wet, or windy it might be!

Date:

Astronomy

Mar. 10, 2013 Rise Set
Actual Time 7:09 AM PDT 6:57 PM PDT
Civil Twilight 6:45 AM PDT 7:22 PM PDT
Nautical Twilight 6:16 AM PDT 7:51 PM PDT
Astronomical Twilight 5:47 AM PDT 8:20 PM PDT
Moon 6:11 AM PDT (3/10) 6:10 PM PDT (3/10)
Length of Visible Light 12h 37m
Length of Day
11h 47m
Waning Crescent, 1% of the Moon is Illuminated
Mar 10
Waning Crescent
Mar 11
New
Mar 19
First Quarter
Mar 27
Full
Apr 2
Last Quarter

Hourly Weather History & Observations

Time (PDT) Temp. Dew Point Humidity Pressure Visibility Wind Dir Wind Speed Gust Speed Precip Events Conditions
12:53 AM 53.1 °F 46.9 °F 80% 30.23 in 10.0 mi Calm Calm - N/A   Clear
1:53 AM 52.0 °F 45.0 °F 77% 30.23 in 10.0 mi NE 3.5 mph - N/A   Clear
3:53 AM 51.1 °F 43.0 °F 74% 30.22 in 10.0 mi ENE 3.5 mph - N/A   Clear
4:53 AM 50.0 °F 43.0 °F 77% 30.22 in 10.0 mi Calm Calm - N/A   Clear
5:53 AM 48.9 °F 42.1 °F 77% 30.23 in 10.0 mi Calm Calm - N/A   Clear
6:53 AM 46.9 °F 42.1 °F 83% 30.25 in 10.0 mi Calm Calm - N/A   Clear
7:53 AM 50.0 °F 42.1 °F 74% 30.25 in 10.0 mi NE 3.5 mph - N/A   Clear
8:53 AM 54.0 °F 43.0 °F 66% 30.27 in 10.0 mi Calm Calm - N/A   Clear
9:53 AM 57.9 °F 43.0 °F 58% 30.27 in 10.0 mi Calm Calm - N/A   Clear
10:53 AM 63.0 °F 42.1 °F 46% 30.26 in 10.0 mi West 6.9 mph - N/A   Clear
11:53 AM 62.1 °F 46.9 °F 58% 30.26 in 10.0 mi WSW 15.0 mph 24.2 mph N/A   Clear
12:53 PM 64.0 °F 46.0 °F 52% 30.25 in 10.0 mi West 12.7 mph - N/A   Clear
1:53 PM 64.0 °F 45.0 °F 50% 30.21 in 10.0 mi WSW 10.4 mph - N/A   Clear
2:53 PM 64.9 °F 43.0 °F 45% 30.19 in 10.0 mi WSW 10.4 mph - N/A   Clear
3:53 PM 64.0 °F 44.1 °F 48% 30.18 in 10.0 mi West 10.4 mph - N/A   Clear
4:53 PM 64.0 °F 42.1 °F 45% 30.17 in 10.0 mi SW 10.4 mph - N/A   Clear
5:53 PM 62.1 °F 45.0 °F 53% 30.16 in 10.0 mi West 6.9 mph - N/A   Clear
6:53 PM 62.1 °F 46.0 °F 56% 30.16 in 10.0 mi Calm Calm - N/A   Clear
7:53 PM 61.0 °F 46.9 °F 60% 30.16 in 10.0 mi Calm Calm - N/A   Clear
8:53 PM 59.0 °F 48.0 °F 67% 30.17 in 10.0 mi Calm Calm - N/A   Clear
9:53 PM 59.0 °F 46.9 °F 64% 30.18 in 10.0 mi Calm Calm - N/A   Clear
10:53 PM 57.0 °F 46.9 °F 69% 30.18 in 10.0 mi Calm Calm - N/A   Clear
11:53 PM 55.0 °F 46.0 °F 72% 30.18 in 10.0 mi Calm Calm - N/A   Clear
12:53 AM 54.0 °F 46.0 °F 75% 30.18 in 10.0 mi Calm Calm - N/A   Clear